Location: Briarwood
(39.0812°N, 76.8511°W)
Time: 23:02:24
(UTC+00:00)

Cosmos 44 Rocket - Pass Details

Date: 10 September 2024
Orbit: 651 x 731 km, 65.1° (Epoch: 06 October)

Event Time Altitude Azimuth Distance (km) Brightness Sun altitude
Rises 23:42:51 0° 338° (NNW) 3,026 7.1 -4.7°
Reaches altitude 10° 23:45:29 10° 349° (N) 2,096 6.1 -5.2°
Maximum altitude 23:49:36 29° 50° (NE) 1,213 4.2 -6.0°
Drops below altitude 10° 23:53:39 10° 110° (ESE) 2,058 5.1 -6.7°
Enters shadow 23:54:12 - 114° (ESE) 2,242 5.3 -6.8°
